GFSMW_925_spd_132.txt.gz
Wind_Speed
13 25 32 33 34 37 37 36 32 26 25 22 17 16 18 18 17 17 13 13 10 8 4 5 3 0 2 4 4 2 6 11 9 10 11 5 8 7 6 3 6 3 8
9 18 29 32 36 40 39 37 32 26 23 23 21 19 20 18 18 18 16 13 11 10 7 5 6 5 5 5 5 2 8 7 10 6 5 3 1 1 4 4 10 3 5
15 12 26 31 31 32 39 39 33 30 26 24 21 18 18 15 16 16 16 15 12 12 9 8 6 8 6 4 3 2 6 3 5 6 3 3 2 5 7 7 6 3 4
8 15 22 28 31 35 40 37 34 32 27 25 22 19 20 15 16 19 19 17 15 13 11 10 6 9 4 7 6 7 4 2 3 6 7 4 2 2 4 2 7 4 9
13 14 24 31 32 32 37 35 35 32 30 26 22 22 20 21 19 19 18 17 16 15 13 11 9 7 4 6 2 3 3 1 2 2 5 6 1 2 3 4 9 9 11
13 13 26 29 29 30 31 35 36 35 31 29 22 21 20 20 16 23 20 20 17 17 15 12 13 7 7 6 5 4 4 4 3 2 3 5 3 3 8 4 6 8 9
13 14 10 25 26 29 29 35 38 37 34 30 26 23 22 19 17 25 25 26 22 20 18 15 17 11 9 9 8 7 5 6 6 5 4 4 7 6 10 13 9 6 6
11 14 13 27 31 32 33 33 36 37 37 35 33 28 22 22 17 23 23 23 22 20 16 18 17 16 12 11 10 9 6 6 6 7 9 9 9 6 5 2 1 3 3
10 13 16 22 30 31 33 36 38 37 40 38 38 34 29 24 20 18 21 20 21 21 17 16 20 19 15 12 10 10 9 8 8 9 8 9 9 6 1 3 2 2 1
9 9 8 14 30 36 37 37 38 41 42 40 39 38 34 31 24 22 21 22 16 18 18 21 19 18 16 14 13 13 12 12 11 9 11 8 8 9 8 3 4 3 3
7 7 7 15 25 32 36 35 33 34 35 39 40 36 37 34 29 26 24 22 21 18 16 19 17 17 17 16 15 15 14 14 13 12 10 14 13 12 11 10 6 5 7
3 3 3 10 17 23 27 30 30 32 39 41 36 38 36 35 33 29 24 20 24 19 19 19 18 18 16 15 16 17 16 15 15 13 13 15 12 13 12 12 9 7 5
8 6 2 5 2 8 18 25 26 32 31 33 37 35 37 36 35 34 28 25 24 23 21 18 17 17 15 15 16 16 15 15 14 13 14 15 12 13 12 12 13 10 10
6 5 3 2 5 5 11 15 29 33 31 32 33 35 37 39 39 37 34 31 28 25 21 18 17 17 15 14 13 13 14 12 11 11 11 11 11 12 12 11 11 11 10
6 5 3 2 7 11 17 18 19 19 29 23 18 16 24 35 36 35 35 33 28 28 25 19 17 16 14 14 14 13 13 10 9 8 7 9 9 8 8 10 11 11 12
3 4 5 4 5 1 4 15 20 17 20 23 19 5 8 15 36 36 35 33 29 27 22 20 18 16 16 14 12 9 10 11 9 7 7 8 8 11 11 12 9 8 9
2 5 4 5 6 1 6 6 12 26 26 25 24 20 24 25 28 38 35 33 31 29 22 21 19 17 19 19 14 10 10 10 8 7 6 7 7 7 6 5 3 2 3
2 2 4 4 6 7 5 4 13 19 25 26 28 31 29 31 32 39 35 31 28 24 22 22 21 19 16 15 11 8 8 7 6 5 4 4 3 2 1 3 3 2 2
2 2 2 5 8 7 7 4 9 15 23 23 26 28 18 28 30 38 36 31 27 22 19 21 21 16 11 11 9 7 6 7 6 4 5 4 3 3 1 0 1 3 3
3 1 5 5 6 6 6 7 13 7 21 27 28 29 15 17 23 24 23 22 22 22 22 20 14 10 5 2 4 8 12 13 11 10 9 7 7 5 3 4 3 3 4
0 1 2 3 5 6 5 7 9 21 15 24 25 28 35 17 19 18 18 22 23 22 22 20 15 13 10 12 13 11 13 15 14 11 9 6 4 3 4 3 3 2 5
3 2 4 1 4 3 2 5 11 20 22 23 22 26 22 24 28 26 23 24 25 24 20 23 20 19 18 17 15 11 12 13 13 8 4 4 5 5 6 6 5 5 5
6 6 6 1 3 2 3 10 9 17 23 20 28 32 31 30 27 24 22 22 20 24 18 20 19 20 16 16 13 11 9 10 8 6 5 4 6 8 8 7 6 6 6
9 11 7 4 6 10 8 11 11 21 26 17 18 21 27 26 25 25 22 23 19 19 19 20 19 16 11 12 12 9 8 7 6 5 4 4 6 8 9 6 7 7 8
12 11 9 9 9 11 12 12 13 21 26 25 18 19 22 23 23 22 22 21 20 19 19 18 19 16 12 10 10 8 6 6 8 8 8 10 9 10 11 11 7 4 6
10 12 13 16 15 14 13 14 14 20 22 20 22 21 20 20 21 20 19 18 17 14 14 14 13 13 11 9 8 8 7 8 8 11 13 15 12 11 14 13 10 8 7

GFSMW_925_spd_138.txt.gz
Wind_Speed
19 26 28 27 27 26 27 29 28 28 25 21 20 18 16 14 14 14 12 11 10 9 10 8 7 6 7 7 6 4 2 4 1 3 1 4 8 10 13 13 14 13 13
10 17 22 25 29 32 32 32 30 30 28 23 22 19 17 16 16 14 15 13 14 12 12 9 9 8 8 8 5 9 5 1 1 1 1 2 3 9 14 14 15 15 16
13 12 19 24 25 29 34 36 32 32 30 25 24 19 14 12 18 15 17 15 13 12 12 11 9 9 10 9 6 7 5 5 1 1 2 2 3 4 6 9 13 13 14
9 11 18 22 27 33 33 35 34 33 32 29 26 27 19 18 20 19 15 15 15 13 12 13 11 10 8 8 7 8 7 4 6 2 2 2 1 0 3 4 4 12 12
11 13 20 28 31 28 35 35 35 33 34 32 30 27 23 22 17 15 15 15 17 15 14 13 11 10 9 8 4 6 6 5 3 5 3 0 1 2 1 3 8 14 15
11 14 22 23 23 22 25 32 34 35 35 32 31 31 31 25 21 16 16 18 17 17 15 14 14 10 10 8 7 7 7 6 4 3 3 2 1 1 2 2 4 6 12
13 15 13 18 20 26 30 32 35 34 35 35 34 33 30 27 25 22 18 17 17 18 19 17 15 14 12 10 10 10 8 8 7 6 6 6 6 6 5 4 4 3 6
10 14 16 21 23 27 27 29 33 35 36 38 37 35 32 29 27 24 22 19 18 20 19 18 15 15 14 13 11 12 11 10 9 9 9 9 9 9 9 7 3 2 3
9 13 15 23 24 25 28 25 25 32 33 39 38 36 33 29 26 25 21 19 19 20 20 18 17 18 17 15 14 15 14 14 13 11 10 10 9 9 9 10 8 4 2
8 8 12 20 24 25 26 28 32 30 32 32 36 37 35 32 30 28 25 23 21 22 22 20 20 18 17 18 17 18 16 16 15 14 13 12 11 9 9 10 11 11 7
7 7 7 17 21 21 28 33 30 32 27 33 39 38 38 36 32 30 29 27 22 22 21 21 20 19 18 18 20 20 18 18 17 16 16 14 12 13 15 14 13 14 13
7 8 11 19 25 29 32 37 27 28 32 32 31 34 32 33 35 34 31 29 28 24 24 22 19 20 20 20 20 20 20 19 20 19 18 18 17 17 15 14 14 14 13
1 1 3 7 16 23 30 33 28 25 27 30 31 32 28 27 34 38 38 34 31 29 26 26 25 21 21 20 20 21 21 20 20 20 20 20 19 15 13 13 14 15 14
4 2 1 2 6 14 20 27 34 30 31 32 32 39 32 31 32 35 39 40 37 32 30 28 28 25 22 21 21 21 20 19 21 20 19 19 15 13 11 12 13 13 14
2 4 4 4 4 5 6 8 18 21 31 37 31 42 39 36 33 35 35 37 39 38 33 30 27 24 22 22 20 20 19 18 17 15 13 10 8 10 10 11 11 10 12
3 4 5 6 8 9 8 8 9 9 13 24 32 38 27 35 37 34 32 34 36 39 36 33 29 26 24 21 20 19 18 16 13 12 10 9 7 8 10 11 11 11 10
3 4 3 5 6 9 8 9 9 9 10 15 24 30 30 34 44 45 36 30 37 38 37 38 33 28 24 23 20 18 17 12 10 10 9 7 7 8 8 9 5 5 4
5 4 3 2 4 5 6 8 9 8 11 16 19 21 28 35 38 37 35 30 33 37 34 36 37 31 26 24 21 17 13 9 9 7 6 5 3 4 5 5 4 3 3
5 5 4 2 2 2 5 6 7 11 12 14 19 22 26 32 33 31 33 32 31 30 33 32 31 28 24 23 19 16 13 10 7 4 3 2 1 1 2 2 1 1 3
7 6 2 3 3 3 5 7 7 13 15 19 23 25 26 27 31 31 33 30 29 25 28 27 25 24 21 15 14 14 13 11 9 7 6 5 6 7 8 7 6 3 5
4 3 2 4 5 4 4 5 10 12 16 21 26 31 30 29 27 28 27 27 23 22 24 24 20 18 15 13 13 13 12 13 14 13 10 9 8 7 8 8 5 3 4
4 3 3 4 5 4 1 4 8 12 17 21 25 12 15 22 23 25 25 25 23 25 25 28 24 20 17 14 14 13 14 16 19 16 12 10 9 8 5 5 5 8 7
2 2 3 4 2 2 3 2 5 12 18 21 24 23 14 15 22 21 21 25 27 29 24 25 25 25 26 26 22 24 24 21 20 16 13 17 8 4 8 10 9 9 11
3 3 3 3 3 4 6 6 4 10 15 19 23 20 24 23 20 21 20 17 23 25 26 27 26 26 29 27 24 21 25 21 19 16 11 14 10 9 8 7 7 9 10
1 4 6 5 4 5 8 9 9 9 17 15 17 21 23 28 28 28 27 22 21 17 26 33 36 29 24 24 24 17 18 19 16 14 15 17 16 15 13 12 11 10 9
6 8 5 7 7 8 8 8 8 10 15 14 15 18 21 24 26 26 34 30 33 30 33 33 34 31 26 22 21 17 19 17 18 20 20 19 17 16 14 13 12 12 11

GFSMW_925_spd_141.txt.gz
Wind_Speed
18 18 19 18 17 17 18 20 20 19 16 13 11 10 11 10 11 11 10 6 7 5 4 5 5 5 6 6 6 6 4 4 2 2 4 6 8 11 11 9 9 10 10
15 17 20 21 21 21 20 20 22 21 22 16 14 9 10 11 11 13 13 11 9 9 8 8 8 7 7 7 6 7 4 2 3 2 3 3 4 4 8 8 9 11 11
17 14 20 23 22 22 23 23 25 25 23 20 15 13 11 11 12 13 13 13 10 11 10 10 9 8 8 8 8 7 6 4 2 2 3 2 3 6 2 3 4 6 8
16 13 19 22 25 26 22 22 25 25 24 25 17 16 14 12 12 14 15 13 15 12 11 11 11 9 8 7 8 7 6 6 4 1 1 1 2 3 4 2 2 8 7
18 16 20 25 25 22 25 23 24 27 24 26 24 19 18 13 9 13 15 14 14 14 12 12 11 9 8 7 7 5 5 4 2 2 2 2 1 1 3 5 7 9 8
18 17 21 18 20 20 21 22 23 28 26 25 27 24 19 17 12 12 12 12 11 13 14 13 12 10 8 8 7 5 5 4 4 2 2 3 3 3 4 4 8 9 9
19 17 16 16 20 23 27 27 25 26 28 27 24 26 24 20 18 18 13 12 12 14 15 16 14 13 11 9 8 8 7 7 6 6 4 5 5 5 6 8 10 8 10
18 19 20 23 24 26 26 25 25 26 26 26 26 26 25 21 20 19 16 14 14 14 15 18 17 15 13 12 11 9 9 8 8 7 6 7 7 7 8 7 8 7 8
16 18 19 24 23 25 28 28 24 23 23 23 22 23 23 24 21 21 20 16 17 15 17 18 18 18 17 15 14 11 11 10 9 9 9 9 9 8 8 8 8 8 8
12 14 16 21 21 24 25 22 27 26 26 23 22 22 24 25 24 22 22 20 18 19 17 18 19 18 18 17 17 14 13 13 11 11 11 10 10 9 9 8 8 9 11
9 11 13 17 19 20 23 25 26 25 23 22 22 22 22 23 23 23 24 24 21 21 19 20 20 21 20 19 19 19 16 14 14 14 13 12 11 11 11 12 14 14 12
5 7 11 13 15 18 19 23 23 20 22 20 22 22 22 23 25 25 23 24 24 23 21 19 19 19 21 21 21 20 17 16 16 15 14 14 14 15 14 14 14 11 11
3 3 4 6 10 13 15 18 18 16 18 20 25 20 21 23 26 27 25 23 24 25 22 22 21 21 22 20 23 21 19 16 17 16 15 16 14 15 12 11 13 10 9
4 3 3 2 2 6 9 11 14 14 16 23 23 18 24 24 26 29 30 27 29 25 24 24 23 23 27 24 22 20 20 19 18 17 16 14 12 11 9 8 10 9 8
4 5 4 4 4 3 1 1 6 12 17 21 24 27 25 21 25 24 23 23 24 27 28 27 25 25 26 24 23 23 21 19 15 15 15 13 9 10 9 7 6 6 8
3 4 5 6 5 5 4 3 1 3 6 14 21 24 23 20 24 26 24 21 23 24 22 25 26 26 26 25 24 22 16 17 15 14 7 8 7 6 6 6 8 7 5
5 4 5 5 5 5 4 3 2 1 3 8 12 17 21 24 27 27 25 24 25 22 21 25 25 26 26 28 26 23 20 18 13 7 7 7 4 3 1 3 2 1 2
6 6 6 5 3 3 3 2 3 3 3 6 10 15 19 24 27 27 24 25 26 25 25 25 26 24 24 29 25 22 17 8 7 7 8 7 4 3 2 2 3 3 2
4 6 6 5 2 1 2 3 3 4 7 9 11 13 17 23 26 28 28 27 25 27 27 25 26 23 24 29 25 22 14 13 10 8 8 8 5 3 2 4 4 4 3
7 7 5 3 2 2 1 2 3 7 7 10 16 20 24 25 30 30 30 30 28 27 23 21 22 22 24 26 25 21 21 18 15 12 9 7 7 7 7 8 8 7 4
7 6 4 4 3 3 3 1 3 5 8 11 15 19 24 30 32 31 30 28 27 24 25 25 20 20 20 22 22 23 22 23 19 15 13 11 10 11 10 9 7 6 5
7 6 6 6 5 4 4 3 1 5 8 14 16 19 20 17 20 26 24 25 23 26 24 22 19 19 20 22 23 22 21 21 22 20 18 15 13 11 10 9 10 8 7
6 5 5 5 5 6 6 5 1 3 8 14 19 21 16 12 1 15 19 21 25 25 23 26 25 21 24 27 26 23 23 21 24 22 19 18 15 15 12 11 12 11 9
3 4 5 6 7 6 8 5 3 3 7 12 20 23 22 21 18 17 9 15 15 21 21 26 24 23 26 34 31 28 27 27 27 26 20 15 15 11 13 11 9 10 10
2 3 4 5 5 6 9 6 4 5 10 9 17 21 24 23 28 29 24 24 13 13 18 20 22 22 23 30 36 34 34 29 20 20 17 18 16 12 11 12 10 10 9
3 4 3 3 4 7 9 7 5 7 5 16 22 18 23 21 23 32 38 35 33 32 34 32 32 31 36 37 36 40 35 29 20 16 22 18 13 11 11 11 12 10 8

GFSMW_925_spd_147.txt.gz
Wind_Speed
17 21 17 18 16 18 18 18 17 17 17 17 16 14 14 13 13 12 10 10 10 10 9 7 7 5 3 6 2 7 6 6 2 10 13 9 10 8 9 5 5 4 4
14 20 21 20 20 18 19 19 19 19 18 15 14 13 14 14 14 11 11 11 9 10 10 9 5 6 4 4 3 4 10 6 2 10 11 6 14 25 15 3 3 4 6
18 18 20 20 20 21 20 20 20 20 19 15 13 9 10 6 12 11 11 12 11 10 10 8 10 3 7 8 5 5 5 12 3 2 5 8 3 17 6 7 3 1 5
20 16 20 21 23 22 22 21 21 21 20 18 15 14 13 14 13 14 14 15 12 11 11 11 10 9 10 5 5 7 7 4 12 4 5 2 6 6 6 4 4 4 3
21 17 20 24 21 23 23 23 23 22 21 22 17 16 15 14 10 13 11 11 11 11 10 10 11 10 10 9 7 4 6 7 8 10 9 4 7 9 5 6 6 8 9
19 17 21 21 21 22 23 24 24 25 23 22 21 18 15 18 11 12 10 13 14 13 13 11 11 11 11 8 7 8 7 7 5 8 6 10 9 2 5 9 9 10 9
20 20 20 19 23 23 24 25 25 25 25 24 21 22 19 17 14 8 10 13 15 14 20 17 13 13 13 10 8 8 8 7 7 6 10 11 8 9 8 10 12 10 12
17 19 19 22 20 23 25 25 26 24 24 24 24 22 22 19 18 16 16 14 13 9 9 16 12 12 11 11 10 9 10 12 10 9 9 12 13 11 10 9 10 8 12
17 18 19 23 23 22 24 25 26 25 25 25 24 23 22 22 19 17 20 18 12 11 12 11 14 14 14 15 15 13 14 10 9 12 13 13 13 13 12 9 11 6 9
14 17 16 23 22 23 25 23 24 25 24 24 24 23 23 22 21 17 18 16 16 18 12 9 13 13 16 17 15 15 14 15 14 16 15 13 14 13 13 13 8 12 4
12 13 13 18 24 21 22 23 21 21 22 23 24 23 23 22 21 21 21 21 19 16 14 14 15 15 16 17 17 15 15 9 13 14 14 12 10 15 15 15 11 9 3
10 10 11 14 16 18 18 19 19 22 22 21 21 22 22 22 22 22 22 22 22 21 20 18 17 17 18 16 16 16 17 16 16 15 15 15 14 15 15 15 14 12 7
10 10 10 10 11 13 13 13 16 17 18 20 20 20 21 21 22 22 23 22 22 21 21 21 21 20 20 20 19 17 18 17 18 17 17 15 16 17 14 14 15 11 9
10 10 10 10 10 11 11 11 12 13 16 17 18 20 21 20 21 22 22 22 23 22 23 22 22 21 21 20 20 19 20 18 19 18 15 15 17 18 13 13 11 9 8
11 10 10 9 10 10 9 8 9 10 12 14 16 21 20 18 20 20 20 21 20 23 23 23 23 22 23 23 23 22 21 20 19 18 16 16 17 20 14 10 8 7 7
11 11 11 10 11 11 9 8 8 8 9 11 13 15 16 20 20 22 22 23 24 25 26 26 26 24 25 25 25 24 22 23 22 17 17 15 15 14 12 13 11 7 5
11 11 10 10 10 10 9 8 6 5 5 5 5 6 6 9 17 22 25 26 25 26 26 27 27 26 27 29 25 26 26 23 21 18 16 14 12 12 9 10 9 7 6
10 9 9 10 9 9 8 6 6 4 3 2 2 4 6 9 12 14 18 20 24 26 28 30 30 29 28 30 30 28 26 25 23 18 17 16 14 12 13 9 9 6 5
8 8 9 10 8 8 6 5 5 4 2 1 3 7 9 12 14 16 19 21 23 26 28 29 30 30 30 30 33 29 27 27 24 19 18 17 17 16 17 12 10 9 6
10 9 10 10 9 7 6 5 5 3 2 5 7 10 13 15 18 19 20 22 23 27 27 28 30 32 30 31 31 33 30 27 24 20 19 21 18 16 17 11 14 11 9
9 8 9 7 5 7 6 5 5 7 5 6 9 11 12 15 18 20 21 21 25 27 28 28 27 27 28 28 31 34 34 24 24 23 18 18 20 19 16 13 11 13 13
10 7 7 7 6 5 7 7 7 7 6 7 10 12 15 15 15 17 22 24 26 25 26 27 26 22 22 28 30 34 34 27 28 25 21 19 22 19 18 16 14 14 13
6 5 5 9 7 7 7 8 11 6 8 10 12 13 16 18 18 17 17 19 17 22 22 19 13 17 18 19 24 24 26 32 27 23 25 27 25 22 19 19 16 15 12
5 5 8 9 9 8 10 9 10 9 10 9 12 13 16 15 21 24 19 18 14 10 5 6 9 8 7 11 16 20 25 36 36 32 33 31 28 27 24 18 13 9 4
7 8 9 9 10 10 10 13 12 11 8 8 11 13 15 17 21 30 26 21 21 9 13 13 12 14 17 14 13 22 18 21 39 42 34 34 33 33 26 22 14 12 7
7 7 7 9 11 13 12 15 13 13 9 10 12 14 15 15 29 22 25 33 31 28 26 24 23 28 26 21 31 35 38 36 27 25 34 28 27 29 25 18 12 9 8